EW3247 Weather Reports


time (UTC)temp
F
wind
direction
speed
knots
gust
knots
rain 1hr
in
rain 24hr
in
rain mn
in
humidity
%
barometer
mb
20260504081015 49 0.0 0.0 0.00 0.00 0.00 67 1015.2
20260504050023 47 0.0 0.0 0.00 0.00 0.00 61 1015.4
20260504045015 48 0.0 0.0 0.00 0.00 0.00 59 1015.4
20260504044025 48 0.0 0.0 0.00 0.00 0.00 56 1015.5
20260504043016 49 59 0.0 0.9 0.00 0.00 0.00 56 1015.5
20260504042024 50 0.0 0.0 0.00 0.00 0.00 53 1015.4
20260504041016 49 37 0.0 0.9 0.00 0.00 0.00 55 1015.4
20260504040024 47 343 0.0 0.9 0.00 0.00 0.00 59 1015.3
20260504035016 47 314 0.0 0.9 0.00 0.00 0.00 59 1015.3
20260504034023 47 275 0.0 0.9 0.00 0.00 0.00 61 1015.2
20260504033030 46 0.0 0.0 0.00 0.00 0.00 64 1015.2
20260504032023 46 0.0 0.0 0.00 0.00 0.00 63 1015.0
20260504031017 46 0.0 0.0 0.00 0.00 0.00 63 1014.8
20260504030045 46 0.0 0.0 0.00 0.00 0.00 62 1014.9
20260504025017 46 0.0 0.0 0.00 0.00 0.00 63 1014.8
20260504024024 47 0.0 0.0 0.00 0.00 0.00 63 1014.9
20260504023036 47 0.0 0.0 0.00 0.00 0.00 60 1014.9
20260504022024 47 0.0 0.0 0.00 0.00 0.00 59 1014.7
20260504021036 47 0.0 0.0 0.00 0.00 0.00 62 1014.7
20260504020023 47 0.0 0.0 0.00 0.00 0.00 63 1014.7
20260504015049 47 0.0 0.0 0.00 0.00 0.00 62 1014.6
20260504014025 47 0.0 0.0 0.00 0.00 0.00 65 1014.8
20260504013017 47 0.0 0.0 0.00 0.00 0.00 63 1014.7
20260504012045 48 0.0 0.0 0.00 0.00 0.00 60 1014.6
20260504011017 48 0.0 0.0 0.00 0.00 0.00 60 1014.5
20260504010024 48 0.0 0.0 0.00 0.00 0.00 61 1014.4
20260504005016 49 0.0 0.0 0.00 0.00 0.00 57 1014.4
20260504004024 50 0.0 0.0 0.00 0.00 0.00 56 1014.2
20260504003016 51 0.0 0.0 0.00 0.00 0.00 54 1014.2
20260504002030 52 0.0 0.0 0.00 0.00 0.00 50 1014.1
20260504001017 54 0.0 0.0 0.00 0.00 0.00 47 1014.0
20260504000025 56 275 0.0 0.9 0.00 0.00 0.00 40 1014.0
20260503235017 57 0.0 0.0 0.00 0.00 0.00 40 1014.0
20260503234024 58 234 0.9 2.6 0.00 0.00 0.00 36 1013.8
20260503233016 59 341 0.0 1.7 0.00 0.00 0.00 36 1013.6
20260503232024 60 256 0.9 2.6 0.00 0.00 0.00 35 1013.5
20260503231016 61 227 0.9 4.3 0.00 0.00 0.00 33 1013.5
20260503230024 62 230 0.0 1.7 0.00 0.00 0.00 33 1013.5
20260503225015 61 245 0.9 2.6 0.00 0.00 0.00 33 1013.7
20260503224025 63 247 0.9 3.5 0.00 0.00 0.00 33 1013.6
20260503223017 63 33 0.0 0.9 0.00 0.00 0.00 33 1013.6
20260503222045 62 232 0.9 2.6 0.00 0.00 0.00 33 1013.7
20260503221025 63 284 1.7 4.3 0.00 0.00 0.00 31 1013.6
20260503220024 62 229 1.7 3.5 0.00 0.00 0.00 31 1013.7
20260503215016 62 242 1.7 5.2 0.00 0.00 0.00 31 1013.7
20260503214024 64 266 0.9 1.7 0.00 0.00 0.00 32 1013.6
20260503213016 63 302 0.9 2.6 0.00 0.00 0.00 32 1013.6
20260503212024 63 247 0.9 4.3 0.00 0.00 0.00 32 1013.7
20260503211017 62 232 0.9 3.5 0.00 0.00 0.00 31 1013.7
20260503210017 62 222 1.7 3.5 0.00 0.00 0.00 32 1013.7
20260503205017 62 213 0.9 4.3 0.00 0.00 0.00 31 1013.6
20260503204024 63 230 1.7 2.6 0.00 0.00 0.00 33 1013.8
20260503203016 61 264 1.7 4.3 0.00 0.00 0.00 34 1014.0
20260503202024 62 253 1.7 3.5 0.00 0.00 0.00 34 1013.9
20260503201016 63 42 0.9 2.6 0.00 0.00 0.00 34 1014.0
20260503200024 62 310 1.7 2.6 0.00 0.00 0.00 34 1014.1
20260503195037 61 249 0.9 3.5 0.00 0.00 0.00 36 1014.3
20260503194025 61 254 0.9 5.2 0.00 0.00 0.00 37 1014.5
20260503193017 61 287 1.7 5.2 0.00 0.00 0.00 36 1014.6
20260503192045 60 230 2.6 5.2 0.00 0.00 0.00 37 1014.7
20260503191017 60 225 1.7 5.2 0.00 0.00 0.00 37 1014.8
20260503190018 60 271 1.7 5.2 0.00 0.00 0.00 38 1014.9
20260503185016 59 241 1.7 2.6 0.00 0.00 0.00 38 1015.1
20260503184044 60 235 1.7 4.3 0.00 0.00 0.00 38 1015.1
20260503183017 59 238 1.7 7.8 0.00 0.00 0.00 38 1015.2
20260503182026 57 250 2.6 5.2 0.00 0.00 0.00 39 1015.3
20260503181017 56 355 0.9 2.6 0.00 0.00 0.00 41 1015.3
20260503180019 58 318 0.9 2.6 0.00 0.00 0.00 41 1015.4
20260503175036 56 282 1.7 5.2 0.00 0.00 0.00 43 1015.5
20260503174024 56 217 1.7 6.1 0.00 0.00 0.00 41 1015.6
20260503173016 57 241 1.7 5.2 0.00 0.00 0.00 41 1015.7
20260503172024 57 226 1.7 5.2 0.00 0.00 0.00 41 1015.6
20260503171018 55 204 1.7 4.3 0.00 0.00 0.00 43 1015.8
20260503131018 47 302 0.9 3.5 0.00 0.00 0.00 58 1016.5